TimeCDT,TemperatureF,Dew PointF,Humidity,Sea Level PressureIn,VisibilityMPH,Wind Direction,Wind SpeedMPH,Gust SpeedMPH,PrecipitationIn,Events,Conditions,WindDirDegrees,DateUTC
12:15 AM,80.1,75.2,85,29.79,7.0,SE,6.9,-,N/A,,Overcast,130,2013-05-22 05:15:00
12:35 AM,80.1,75.2,85,29.80,7.0,SE,9.2,-,N/A,,Overcast,130,2013-05-22 05:35:00
12:55 AM,80.1,75.2,85,29.80,7.0,SE,10.4,-,N/A,,Overcast,130,2013-05-22 05:55:00
1:15 AM,80.1,75.2,85,29.80,7.0,SE,8.1,-,N/A,,Overcast,130,2013-05-22 06:15:00
1:35 AM,80.1,75.4,86,29.79,7.0,SE,8.1,-,N/A,,Overcast,140,2013-05-22 06:35:00
1:55 AM,80.1,75.2,85,29.79,7.0,SE,10.4,-,N/A,,Overcast,130,2013-05-22 06:55:00
2:15 AM,80.1,75.0,85,29.79,7.0,SE,9.2,-,N/A,,Overcast,130,2013-05-22 07:15:00
2:35 AM,79.7,74.8,85,29.78,7.0,SE,10.4,-,N/A,,Mostly Cloudy,130,2013-05-22 07:35:00
2:55 AM,79.7,75.2,86,29.78,7.0,SE,10.4,-,N/A,,Scattered Clouds,130,2013-05-22 07:55:00
3:15 AM,79.2,75.2,88,29.78,7.0,SE,10.4,-,N/A,,Scattered Clouds,140,2013-05-22 08:15:00
3:35 AM,79.2,75.2,88,29.78,7.0,SE,9.2,-,N/A,,Scattered Clouds,140,2013-05-22 08:35:00
3:55 AM,79.0,75.2,88,29.79,7.0,SE,9.2,-,N/A,,Mostly Cloudy,130,2013-05-22 08:55:00
4:15 AM,79.2,75.4,88,29.78,7.0,SE,9.2,-,N/A,,Overcast,130,2013-05-22 09:15:00
4:35 AM,79.2,75.2,88,29.79,7.0,SE,10.4,-,N/A,,Mostly Cloudy,140,2013-05-22 09:35:00
4:55 AM,79.2,75.0,87,29.79,7.0,SE,8.1,-,N/A,,Overcast,140,2013-05-22 09:55:00
5:15 AM,79.2,74.8,87,29.80,7.0,SE,6.9,-,N/A,,Overcast,130,2013-05-22 10:15:00
5:35 AM,79.2,74.8,87,29.80,7.0,East,5.8,-,N/A,,Mostly Cloudy,100,2013-05-22 10:35:00
5:55 AM,79.0,75.0,88,29.80,7.0,East,3.5,-,N/A,,Mostly Cloudy,100,2013-05-22 10:55:00
6:15 AM,79.2,75.2,88,29.81,7.0,ENE,3.5,-,N/A,,Overcast,60,2013-05-22 11:15:00
6:35 AM,79.3,75.2,87,29.82,7.0,Calm,Calm,-,N/A,,Overcast,0,2013-05-22 11:35:00
6:55 AM,79.3,75.2,87,29.82,5.0,NE,3.5,-,N/A,,Overcast,40,2013-05-22 11:55:00
7:15 AM,79.7,75.2,86,29.84,5.0,NE,4.6,-,N/A,,Haze,50,2013-05-22 12:15:00
7:35 AM,80.1,75.2,85,29.84,5.0,East,3.5,-,N/A,,Haze,80,2013-05-22 12:35:00
7:55 AM,80.4,75.0,84,29.84,5.0,ESE,5.8,-,N/A,,Haze,110,2013-05-22 12:55:00
8:15 AM,80.6,75.2,84,29.85,5.0,ESE,5.8,-,N/A,,Haze,120,2013-05-22 13:15:00
8:35 AM,81.1,75.2,82,29.85,5.0,SE,9.2,-,N/A,,Haze,140,2013-05-22 13:35:00
8:55 AM,81.7,75.2,81,29.86,7.0,SE,9.2,-,N/A,,Overcast,140,2013-05-22 13:55:00
9:15 AM,81.7,75.4,81,29.86,7.0,SE,10.4,-,N/A,,Overcast,130,2013-05-22 14:15:00
9:35 AM,82.9,75.2,77,29.87,7.0,SE,8.1,-,N/A,,Overcast,140,2013-05-22 14:35:00
9:55 AM,83.3,74.7,75,29.87,7.0,SE,9.2,-,N/A,,Overcast,140,2013-05-22 14:55:00
10:15 AM,84.4,73.9,71,29.88,7.0,ESE,9.2,-,N/A,,Overcast,120,2013-05-22 15:15:00
10:35 AM,84.4,73.8,70,29.88,7.0,SE,9.2,-,N/A,,Overcast,130,2013-05-22 15:35:00
10:55 AM,84.4,73.4,69,29.88,7.0,ESE,9.2,-,N/A,,Overcast,120,2013-05-22 15:55:00
11:15 AM,84.9,73.4,68,29.88,7.0,ESE,10.4,-,N/A,,Overcast,110,2013-05-22 16:15:00
11:35 AM,86.7,73.2,64,29.88,7.0,SSE,9.2,16.1,N/A,,Overcast,150,2013-05-22 16:35:00
11:55 AM,87.8,72.9,61,29.88,7.0,SE,10.4,-,N/A,,Overcast,130,2013-05-22 16:55:00
12:15 PM,88.5,72.7,59,29.88,10.0,East,11.5,-,N/A,,Overcast,100,2013-05-22 17:15:00
12:35 PM,88.7,72.3,58,29.88,10.0,SE,11.5,-,N/A,,Overcast,140,2013-05-22 17:35:00
12:55 PM,88.9,71.6,56,29.88,10.0,ESE,11.5,-,N/A,,Overcast,120,2013-05-22 17:55:00
1:15 PM,88.2,71.6,58,29.87,10.0,SE,9.2,-,N/A,,Overcast,130,2013-05-22 18:15:00
1:35 PM,89.1,71.6,56,29.87,10.0,ESE,12.7,-,N/A,,Mostly Cloudy,110,2013-05-22 18:35:00
1:55 PM,88.5,71.6,57,29.87,10.0,ESE,12.7,19.6,N/A,,Overcast,120,2013-05-22 18:55:00
2:15 PM,88.7,71.8,57,29.86,10.0,SE,15.0,-,N/A,,Overcast,130,2013-05-22 19:15:00
2:35 PM,90.3,72.1,55,29.85,10.0,SE,15.0,19.6,N/A,,Mostly Cloudy,130,2013-05-22 19:35:00
2:55 PM,89.8,72.5,57,29.85,10.0,SE,17.3,21.9,N/A,,Overcast,130,2013-05-22 19:55:00
3:15 PM,89.6,72.7,57,29.84,10.0,SE,17.3,-,N/A,,Overcast,130,2013-05-22 20:15:00
3:35 PM,88.9,72.3,58,29.84,10.0,ESE,13.8,-,N/A,,Overcast,120,2013-05-22 20:35:00
3:55 PM,89.4,72.3,57,29.83,10.0,SE,15.0,-,N/A,,Overcast,130,2013-05-22 20:55:00
4:15 PM,89.4,72.5,57,29.83,10.0,ESE,15.0,-,N/A,,Overcast,120,2013-05-22 21:15:00
4:35 PM,88.7,72.1,58,29.82,10.0,SE,15.0,-,N/A,,Overcast,130,2013-05-22 21:35:00
4:55 PM,88.5,72.5,59,29.82,10.0,ESE,15.0,-,N/A,,Overcast,120,2013-05-22 21:55:00
5:15 PM,87.8,72.1,60,29.81,10.0,ESE,13.8,-,N/A,,Overcast,120,2013-05-22 22:15:00
5:35 PM,88.0,72.5,60,29.81,10.0,SE,12.7,18.4,N/A,,Mostly Cloudy,130,2013-05-22 22:35:00
5:55 PM,88.0,72.1,59,29.81,10.0,ESE,11.5,16.1,N/A,,Scattered Clouds,120,2013-05-22 22:55:00
6:15 PM,88.3,72.5,59,29.80,10.0,SE,12.7,-,N/A,,Scattered Clouds,130,2013-05-22 23:15:00
6:35 PM,87.3,72.1,61,29.80,10.0,ESE,11.5,-,N/A,,Scattered Clouds,120,2013-05-22 23:35:00
6:55 PM,87.1,72.5,62,29.81,10.0,ESE,12.7,-,N/A,,Scattered Clouds,120,2013-05-22 23:55:00
7:15 PM,86.2,72.5,64,29.81,10.0,SE,12.7,-,N/A,,Scattered Clouds,130,2013-05-23 00:15:00
7:35 PM,85.3,72.5,65,29.81,10.0,ESE,12.7,-,N/A,,Clear,120,2013-05-23 00:35:00
7:55 PM,84.4,72.5,67,29.82,10.0,SE,15.0,-,N/A,,Clear,130,2013-05-23 00:55:00
8:15 PM,83.1,72.5,70,29.83,10.0,SE,12.7,-,N/A,,Clear,130,2013-05-23 01:15:00
8:35 PM,82.2,73.4,75,29.84,10.0,ESE,13.8,-,N/A,,Clear,120,2013-05-23 01:35:00
8:55 PM,81.0,73.8,79,29.84,10.0,ESE,10.4,-,N/A,,Clear,120,2013-05-23 01:55:00
9:15 PM,80.6,74.3,81,29.85,10.0,ESE,10.4,-,N/A,,Clear,120,2013-05-23 02:15:00
9:35 PM,80.1,74.1,82,29.86,10.0,SE,12.7,-,N/A,,Clear,130,2013-05-23 02:35:00
9:55 PM,79.7,74.3,83,29.87,10.0,ESE,15.0,-,N/A,,Scattered Clouds,120,2013-05-23 02:55:00
10:15 PM,79.7,74.3,83,29.88,10.0,SE,12.7,-,N/A,,Scattered Clouds,130,2013-05-23 03:15:00
10:35 PM,79.3,74.3,84,29.88,10.0,ESE,12.7,-,N/A,,Scattered Clouds,120,2013-05-23 03:35:00
10:55 PM,79.2,74.3,85,29.89,10.0,SE,11.5,-,N/A,,Scattered Clouds,130,2013-05-23 03:55:00
11:15 PM,79.3,74.5,85,29.89,10.0,SE,11.5,-,N/A,,Overcast,130,2013-05-23 04:15:00
11:35 PM,79.0,74.5,86,29.90,10.0,SE,12.7,-,N/A,,Mostly Cloudy,130,2013-05-23 04:35:00
11:55 PM,79.0,74.5,86,29.90,10.0,SE,10.4,-,N/A,,Mostly Cloudy,130,2013-05-23 04:55:00